DW7628 Weather Reports


time (UTC)temp
C
wind
direction
speed
KPH
gust
KPH
rain 1hr
cm
rain 24hr
cm
rain mn
cm
humidity
%
barometer
mb
20260507142307 18 85 0.0 0.0 0.00 0.00 0.00 71 1006.6
20260507141805 17 83 0.0 0.0 0.00 0.00 0.00 72 1006.6
20260507141305 17 100 0.0 0.0 0.00 0.00 0.00 72 1006.7
20260507140805 17 125 0.0 0.0 0.00 0.00 0.00 71 1006.8
20260507140305 17 144 0.0 0.0 0.00 0.00 0.00 72 1006.8
20260507135306 17 75 0.0 0.0 0.00 0.00 0.00 71 1006.8
20260507134805 17 75 0.0 0.0 0.00 0.00 0.00 70 1006.7
20260507134305 17 81 0.0 0.0 0.00 0.00 0.00 70 1006.9
20260507133805 17 21 0.0 0.0 0.00 0.00 0.00 70 1006.8
20260507133306 17 52 0.0 0.0 0.00 0.00 0.00 70 1006.6
20260507132307 17 22 0.0 0.0 0.00 0.00 0.00 70 1006.9
20260507131805 17 83 0.0 0.0 0.00 0.00 0.00 69 1006.9
20260507131305 17 25 0.0 0.0 0.00 0.00 0.00 69 1007.0
20260507130306 17 10 0.0 0.0 0.00 0.00 0.00 69 1006.9
20260507125805 17 117 0.0 0.0 0.00 0.00 0.00 69 1006.9
20260507125307 17 44 0.0 0.0 0.00 0.00 0.00 68 1007.1
20260507124805 17 56 0.0 0.0 0.00 0.00 0.00 69 1007.2
20260507124304 17 87 0.0 0.0 0.00 0.00 0.00 68 1007.2
20260507123805 17 13 0.0 0.0 0.00 0.00 0.00 67 1007.5
20260507123304 18 15 0.0 0.0 0.00 0.00 0.00 67 1007.5
20260507122806 18 16 0.0 0.0 0.00 0.00 0.00 67 1007.5
20260507122307 18 47 0.0 0.0 0.00 0.00 0.00 67 1007.5
20260507121805 17 44 0.0 0.0 0.00 0.00 0.00 68 1007.6
20260507121305 17 40 0.0 0.0 0.00 0.00 0.00 67 1007.5
20260507120805 17 139 0.0 0.0 0.00 0.00 0.00 66 1007.1
20260507120305 17 82 0.0 0.0 0.00 0.00 0.00 67 1007.0
20260507115805 17 86 0.0 0.0 0.00 0.00 0.00 67 1007.0
20260507115307 17 27 0.0 0.0 0.00 0.00 0.00 66 1007.0
20260507114805 18 63 0.0 0.0 0.00 0.00 0.00 66 1007.1
20260507114305 17 46 0.0 0.0 0.00 0.00 0.00 66 1006.9
20260507113805 17 36 0.0 0.0 0.00 0.00 0.00 66 1006.8
20260507113306 18 109 0.0 0.0 0.00 0.00 0.00 66 1007.0
20260507112805 17 76 0.0 0.0 0.00 0.00 0.00 67 1007.0
20260507111805 17 67 0.0 0.0 0.00 0.00 0.00 67 1007.2
20260507111305 17 16 0.0 0.0 0.00 0.00 0.00 67 1007.3
20260507110805 17 108 0.0 0.0 0.00 0.00 0.00 68 1007.2
20260507110305 17 91 0.0 0.0 0.00 0.00 0.00 68 1007.1
20260507105805 17 90 0.0 0.0 0.00 0.00 0.00 68 1007.3
20260507105307 17 49 0.0 0.0 0.00 0.00 0.00 69 1007.4
20260507104804 17 114 0.0 0.0 0.00 0.00 0.00 69 1007.3
20260507104305 17 98 0.0 0.0 0.00 0.00 0.00 68 1007.6
20260507103805 17 86 0.0 0.0 0.00 0.00 0.00 68 1007.6
20260507103305 17 81 0.0 0.0 0.00 0.00 0.00 67 1007.5
20260507102805 17 74 0.0 0.0 0.00 0.00 0.00 66 1007.4
20260507102307 17 33 0.0 0.0 0.00 0.00 0.00 66 1007.3
20260507101805 18 4 0.0 0.0 0.00 0.00 0.00 64 1007.2
20260507101305 18 119 0.0 0.0 0.00 0.00 0.00 64 1007.4
20260507100805 18 24 0.0 0.0 0.00 0.00 0.00 63 1007.6
20260507100305 18 15 0.0 0.0 0.00 0.00 0.00 63 1007.5
20260507095306 18 35 0.0 0.0 0.00 0.00 0.00 62 1007.6
20260507094804 18 62 0.0 0.0 0.00 0.00 0.00 62 1007.5
20260507094306 17 67 0.0 0.0 0.00 0.00 0.00 63 1007.6
20260507093804 18 93 0.0 0.0 0.00 0.00 0.00 62 1007.6
20260507093304 17 64 0.0 0.0 0.00 0.00 0.00 63 1007.6
20260507092806 17 52 0.0 0.0 0.00 0.00 0.00 63 1007.7
20260507092307 17 119 0.0 0.0 0.00 0.00 0.00 63 1007.9
20260507091805 17 44 0.0 0.0 0.00 0.00 0.00 62 1008.2
20260507091304 17 95 0.0 0.0 0.00 0.00 0.00 62 1008.1
20260507090805 17 120 0.0 0.0 0.00 0.00 0.00 61 1008.0
20260507090305 17 81 0.0 0.0 0.00 0.00 0.00 62 1007.9
20260507085804 17 112 0.0 0.0 0.00 0.00 0.00 61 1007.8
20260507085306 17 110 0.0 0.0 0.00 0.00 0.00 61 1007.7
20260507084305 17 99 0.0 0.0 0.00 0.00 0.00 63 1007.8
20260507083305 17 142 0.0 0.0 0.00 0.00 0.00 63 1008.0
20260507082805 17 73 0.0 0.0 0.00 0.00 0.00 64 1008.0
20260507081805 17 40 0.0 0.0 0.00 0.00 0.00 64 1007.9
20260507081304 17 84 0.0 0.0 0.00 0.00 0.00 64 1008.2
20260507080805 17 148 0.0 0.0 0.00 0.00 0.00 64 1008.0
20260507080305 17 48 0.0 0.0 0.00 0.00 0.00 65 1008.1
20260507075804 16 31 0.0 0.0 0.00 0.00 0.00 65 1008.0
20260507075307 16 316 0.0 0.0 0.00 0.00 0.00 67 1008.0
20260507074804 16 21 0.0 0.0 0.00 0.00 0.00 66 1007.8
20260507074305 16 101 0.0 0.0 0.00 0.00 0.00 66 1007.8
20260507073806 16 97 0.0 0.0 0.00 0.00 0.00 67 1007.8
20260507073305 16 9 0.0 0.0 0.00 0.00 0.00 68 1007.8
20260507072804 16 82 0.0 0.0 0.00 0.00 0.00 69 1007.8
20260507072306 16 10 0.0 0.0 0.00 0.00 0.00 70 1007.8
20260507071805 16 130 0.0 0.0 0.00 0.00 0.00 71 1008.0
20260507071304 16 42 0.0 0.0 0.00 0.00 0.00 70 1008.0
20260507070805 16 103 0.0 0.0 0.00 0.00 0.00 70 1008.0
20260507070304 16 90 0.0 0.0 0.00 0.00 0.00 72 1007.9
20260507065804 15 106 0.0 0.0 0.00 0.00 0.00 72 1007.7
20260507065306 15 52 0.0 0.0 0.00 0.00 0.00 73 1007.7
20260507064305 15 143 0.0 0.0 0.00 0.00 0.00 73 1007.8
20260507063804 15 90 0.0 0.0 0.00 0.00 0.00 73 1007.7
20260507063304 15 192 0.0 0.0 0.00 0.00 0.00 73 1007.8
20260507062306 15 60 0.0 0.0 0.00 0.00 0.00 71 1007.7
20260507061804 15 47 0.0 0.0 0.00 0.00 0.00 70 1007.7
20260507061305 15 27 0.0 0.0 0.00 0.00 0.00 70 1007.5
20260507060804 15 56 0.0 0.0 0.00 0.00 0.00 70 1007.5
20260507060305 15 101 0.0 0.0 0.00 0.00 0.00 71 1007.7
20260507055805 15 88 0.0 0.0 0.00 0.00 0.00 71 1007.3
20260507055306 15 43 0.0 0.0 0.00 0.00 0.00 72 1007.2
20260507054304 15 13 0.0 0.0 0.00 0.00 0.00 72 1007.2
20260507053806 15 77 0.0 0.0 0.00 0.00 0.00 71 1007.3
20260507053305 15 87 0.0 0.0 0.00 0.00 0.00 70 1007.4
20260507052804 15 187 0.0 0.0 0.00 0.00 0.00 69 1007.4
20260507052306 14 315 0.0 0.0 0.00 0.00 0.00 69 1007.3
20260507051304 14 120 0.0 0.0 0.00 0.00 0.00 69 1007.3
20260507050804 15 100 0.0 0.0 0.00 0.00 0.00 68 1007.3
20260507045804 15 230 0.0 0.0 0.00 0.00 0.00 65 1007.3
20260507044804 15 43 0.0 0.0 0.00 0.00 0.00 63 1007.5
20260507044305 15 62 0.0 0.0 0.00 0.00 0.00 63 1007.4
20260507043804 15 69 0.0 0.0 0.00 0.00 0.00 62 1007.5
20260507043304 15 63 0.0 0.0 0.00 0.00 0.00 60 1007.5
20260507042804 15 61 0.0 0.0 0.00 0.00 0.00 60 1007.5
20260507042306 15 329 0.0 0.0 0.00 0.00 0.00 59 1007.6
20260507041804 15 65 0.0 0.0 0.00 0.00 0.00 59 1007.5
20260507041304 15 145 0.0 0.0 0.00 0.00 0.00 58 1007.5
20260507040804 15 103 0.0 0.0 0.00 0.00 0.00 59 1007.5
20260507035804 15 80 0.0 0.0 0.00 0.00 0.00 60 1007.6
20260507035306 15 81 0.0 0.0 0.00 0.00 0.00 60 1007.6
20260507034804 15 56 0.0 0.0 0.00 0.00 0.00 60 1007.6
20260507034306 15 48 0.0 0.0 0.00 0.00 0.00 62 1007.7
20260507033804 15 32 0.0 0.0 0.00 0.00 0.00 62 1007.8
20260507033304 14 60 0.0 0.0 0.00 0.00 0.00 62 1007.9
20260507032804 14 22 0.0 0.0 0.00 0.00 0.00 63 1008.2
20260507032306 14 94 0.0 0.0 0.00 0.00 0.00 62 1008.3
20260507031804 14 86 0.0 0.0 0.00 0.00 0.00 63 1008.4
20260507031304 14 290 0.0 0.0 0.00 0.00 0.00 64 1008.5
20260507030804 14 111 0.0 0.0 0.00 0.00 0.00 65 1008.5
20260507030304 14 46 0.0 0.0 0.00 0.00 0.00 66 1008.6
20260507025804 14 54 0.0 0.0 0.00 0.00 0.00 66 1008.7
20260507025306 14 64 0.0 0.0 0.00 0.00 0.00 65 1008.8
20260507024804 14 71 0.0 0.0 0.00 0.00 0.00 67 1009.0
20260507024304 14 56 0.0 0.0 0.00 0.00 0.00 68 1009.0
20260507023804 13 42 0.0 0.0 0.00 0.00 0.00 69 1009.1
20260507023304 13 65 0.0 0.0 0.00 0.00 0.00 72 1009.1
20260507022805 13 19 0.0 0.0 0.00 0.00 0.00 73 1009.1
20260507021304 13 32 0.0 0.0 0.00 0.00 0.00 76 1009.2
20260507020804 13 344 0.0 0.0 0.00 0.00 0.00 76 1009.1
20260507020304 13 75 0.0 0.0 0.00 0.00 0.00 75 1009.2
20260507015306 13 40 0.0 0.0 0.00 0.00 0.00 75 1008.9
20260507014804 13 110 0.0 0.0 0.00 0.00 0.00 75 1008.9
20260507014304 13 77 0.0 0.0 0.00 0.00 0.00 74 1008.9
20260507013804 13 40 0.0 0.0 0.00 0.00 0.00 72 1009.1
20260507013303 14 105 0.0 0.0 0.00 0.00 0.00 71 1009.1
20260507012306 14 106 0.0 0.0 0.00 0.00 0.00 70 1009.1
20260507011804 13 85 0.0 0.0 0.00 0.00 0.00 71 1009.1
20260507011304 13 182 0.0 0.0 0.00 0.00 0.00 72 1009.2
20260507010804 13 7 0.0 0.0 0.00 0.00 0.00 75 1009.1
20260507010304 13 351 0.0 0.0 0.00 0.00 0.00 75 1009.2
20260507005804 13 11 0.0 0.0 0.00 0.00 0.00 74 1009.1
20260507005306 13 63 0.0 0.0 0.00 0.00 0.00 75 1009.2
20260507004804 13 9 0.0 0.0 0.00 0.00 0.00 75 1009.2
20260507004304 13 84 0.0 0.0 0.00 0.00 0.00 77 1009.2
20260507003803 13 32 0.0 0.0 0.00 0.00 0.00 77 1009.3
20260507003304 13 105 0.0 0.0 0.00 0.00 0.00 77 1009.4
20260507002306 14 357 0.0 0.0 0.00 0.00 0.00 75 1009.6
20260507001807 14 27 0.0 0.0 0.00 0.00 0.00 73 1009.6
20260507001307 14 81 0.0 0.0 0.00 0.00 0.00 73 1009.7
20260507000806 14 106 0.0 0.0 0.00 0.00 0.00 73 1009.7
20260507000307 14 92 0.0 0.0 0.00 0.00 0.00 74 1009.7
20260506235806 13 45 0.0 0.0 0.00 0.00 0.00 75 1009.8
20260506235307 13 253 0.0 0.0 0.00 0.00 0.00 77 1009.7
20260506234806 13 96 0.0 0.0 0.00 0.00 0.00 78 1009.9
20260506233807 14 209 0.0 0.0 0.00 0.00 0.00 77 1010.0
20260506233306 13 49 0.0 0.0 0.00 0.00 0.00 77 1010.1
20260506232806 13 25 0.0 0.0 0.00 0.00 0.00 78 1010.3
20260506232306 13 12 0.0 0.0 0.00 0.00 0.00 79 1010.4
20260506231806 13 139 0.0 0.0 0.00 0.00 0.00 79 1010.4
20260506231306 13 137 0.0 0.0 0.00 0.00 0.00 79 1010.3
20260506230806 13 80 0.0 0.0 0.00 0.00 0.00 78 1010.6
20260506230306 14 18 0.0 0.0 0.00 0.00 0.00 77 1010.7
20260506225806 14 30 0.0 0.0 0.00 0.00 0.00 77 1010.8
20260506225306 14 11 0.0 0.0 0.00 0.00 0.00 77 1010.9
20260506224306 14 356 0.0 0.0 0.00 0.00 0.00 77 1010.9
20260506223806 14 55 0.0 0.0 0.00 0.00 0.00 77 1011.0
20260506223306 14 131 0.0 0.0 0.00 0.00 0.00 77 1011.0
20260506222806 14 223 0.0 0.0 0.00 0.00 0.00 76 1011.0
20260506222306 14 29 0.0 0.0 0.00 0.00 0.00 76 1010.7
20260506221806 14 328 0.0 0.0 0.00 0.00 0.00 76 1010.6
20260506221307 14 105 0.0 0.0 0.00 0.00 0.00 75 1010.4
20260506220306 14 31 0.0 0.0 0.00 0.00 0.00 74 1010.3
20260506215806 14 72 0.0 0.0 0.00 0.00 0.00 73 1010.2
20260506215307 15 344 0.0 0.0 0.00 0.00 0.00 72 1010.4
20260506214806 15 127 0.0 0.0 0.00 0.00 0.00 70 1010.4
20260506214307 15 10 0.0 0.0 0.00 0.00 0.00 69 1010.5
20260506213806 15 106 0.0 0.0 0.00 0.00 0.00 68 1010.5
20260506213306 15 27 0.0 0.0 0.00 0.00 0.00 67 1010.6
20260506212806 15 172 0.0 0.0 0.00 0.00 0.00 66 1010.5
20260506212307 15 7 0.0 0.0 0.00 0.00 0.00 65 1010.6
20260506211806 15 127 0.0 0.0 0.00 0.00 0.00 65 1010.6
20260506211306 15 26 0.0 0.0 0.00 0.00 0.00 65 1010.5
20260506210806 15 100 0.0 0.0 0.00 0.00 0.00 66 1010.6
20260506210306 15 82 0.0 0.0 0.00 0.00 0.00 67 1010.8
20260506205805 15 73 0.0 0.0 0.00 0.00 0.00 68 1010.6
20260506205306 15 19 0.0 0.0 0.00 0.00 0.00 68 1010.6
20260506204806 15 86 0.0 0.0 0.00 0.00 0.00 69 1010.9
20260506203806 15 83 0.0 0.0 0.00 0.00 0.00 68 1010.7
20260506202805 15 142 0.0 0.0 0.00 0.00 0.00 68 1010.7
20260506202306 15 86 0.0 0.0 0.00 0.00 0.00 68 1010.7
20260506201806 15 114 0.0 0.0 0.00 0.00 0.00 68 1010.9
20260506201305 15 160 0.0 0.0 0.00 0.00 0.00 68 1010.8
20260506200306 15 2 0.0 0.0 0.00 0.00 0.00 67 1010.4
20260506195807 15 66 0.0 0.0 0.00 0.00 0.00 67 1010.3
20260506194806 15 143 0.0 0.0 0.00 0.00 0.00 67 1010.1
20260506194305 16 84 0.0 0.0 0.00 0.00 0.00 67 1010.0
20260506193806 16 125 0.0 0.0 0.00 0.00 0.00 68 1010.0
20260506193305 16 84 0.0 0.0 0.00 0.00 0.00 68 1009.9
20260506192806 16 82 0.0 0.0 0.00 0.00 0.00 67 1009.8
20260506192306 16 84 0.0 0.0 0.00 0.00 0.00 66 1009.9
20260506191807 16 313 0.0 0.0 0.00 0.00 0.00 66 1009.5
20260506191306 16 59 0.0 0.0 0.00 0.00 0.00 66 1009.4
20260506190805 16 54 0.0 0.0 0.00 0.00 0.00 65 1009.8
20260506190306 16 14 0.0 0.0 0.00 0.00 0.00 64 1009.6
20260506185805 16 145 0.0 0.0 0.00 0.00 0.00 63 1009.5
20260506185307 16 162 0.0 0.0 0.00 0.00 0.00 63 1009.2
20260506184806 16 71 0.0 0.0 0.00 0.00 0.00 62 1008.8
20260506184306 17 11 0.0 0.0 0.00 0.00 0.00 60 1008.4
20260506183305 17 18 0.0 0.0 0.00 0.00 0.00 60 1008.5
20260506182806 17 322 0.0 0.0 0.00 0.00 0.00 60 1008.8
20260506182307 17 356 0.0 0.0 0.00 0.00 0.00 60 1009.2
20260506181806 17 79 0.0 0.0 0.00 0.00 0.00 60 1009.4
20260506181306 17 311 0.0 0.0 0.00 0.00 0.00 60 1009.5
20260506180805 17 357 0.0 0.0 0.00 0.00 0.00 60 1009.7
20260506180306 17 101 0.0 0.0 0.00 0.00 0.00 60 1010.0
20260506175306 18 111 0.0 0.0 0.00 0.00 0.00 60 1010.3
20260506174305 18 66 0.0 0.0 0.00 0.00 0.00 60 1010.6
20260506173806 18 128 0.0 0.0 0.00 0.00 0.00 60 1010.6
20260506173305 18 111 0.0 0.0 0.00 0.00 0.00 60 1010.6
20260506172806 18 138 0.0 0.0 0.00 0.00 0.00 60 1010.5
20260506172307 18 86 0.0 0.0 0.00 0.00 0.00 60 1010.5
20260506171806 18 100 0.0 0.0 0.00 0.00 0.00 61 1010.5
20260506170805 19 69 0.0 0.0 0.00 0.00 0.00 60 1010.5
20260506170305 19 83 0.0 0.0 0.00 0.00 0.00 60 1010.6
20260506165806 19 118 0.0 0.0 0.00 0.00 0.00 60 1010.3
20260506165306 20 78 0.0 0.0 0.00 0.00 0.00 60 1010.1
20260506164305 20 156 0.0 0.0 0.00 0.00 0.00 59 1009.9
20260506163805 20 133 0.0 0.0 0.00 0.00 0.00 59 1009.9
20260506163306 20 36 0.0 0.0 0.00 0.00 0.00 59 1010.0
20260506162805 20 22 0.0 0.0 0.00 0.00 0.00 59 1010.2
20260506162307 21 83 0.0 0.0 0.00 0.00 0.00 58 1010.1
20260506161805 21 175 0.0 0.0 0.00 0.00 0.00 57 1010.1
20260506161307 21 98 0.0 0.0 0.00 0.00 0.00 55 1010.0
20260506160805 21 75 0.0 0.0 0.00 0.00 0.00 48 1009.9
20260506160306 21 84 0.0 0.0 0.00 0.00 0.00 47 1009.8
20260506155306 21 82 0.0 0.0 0.00 0.00 0.00 46 1010.0
20260506154805 21 29 0.0 0.0 0.00 0.00 0.00 46 1010.3
20260506154306 21 79 0.0 0.0 0.00 0.00 0.00 45 1010.4
20260506153805 21 93 0.0 0.0 0.00 0.00 0.00 45 1010.5
20260506153305 21 317 0.0 0.0 0.00 0.00 0.00 44 1010.6
20260506152805 21 87 0.0 0.0 0.00 0.00 0.00 44 1010.7
20260506152306 21 237 0.0 0.0 0.00 0.00 0.00 45 1010.8
20260506151805 21 85 0.0 0.0 0.00 0.00 0.00 45 1010.8
20260506151305 21 159 0.0 0.0 0.00 0.00 0.00 45 1010.7
20260506150805 21 92 0.0 0.0 0.00 0.00 0.00 45 1010.8
20260506150305 21 211 0.0 0.0 0.00 0.00 0.00 45 1010.8
20260506145805 21 240 0.0 0.0 0.00 0.00 0.00 45 1010.8
20260506145306 21 157 0.0 0.0 0.00 0.00 0.00 45 1010.8
20260506144805 21 77 0.0 0.0 0.00 0.00 0.00 45 1010.9
20260506144305 21 105 0.0 0.0 0.00 0.00 0.00 47 1010.9
20260506143805 21 267 0.0 0.0 0.00 0.00 0.00 47 1011.0
20260506143305 21 86 0.0 0.0 0.00 0.00 0.00 46 1011.0
20260506142806 21 83 0.0 0.0 0.00 0.00 0.00 45 1011.0